Location: Newark
(41.8083°N, 72.2500°W)
Time: 20:28:17
(UTC+00:00)

deb Explorer IX - Pass Details

Date: 01 December 2021
Orbit: 544 x 1082 km, 38.8° (Epoch: 16 January)

Event Time Altitude Azimuth Distance (km) Brightness Sun altitude
Rises 18:05:08 0° 262° (W) 2,764 ? 23.2°
Reaches altitude 10° 18:07:27 10° 258° (WSW) 1,832 ? 23.0°
Maximum altitude 18:11:31 57° 180° (S) 640 ? 22.7°
Drops below altitude 10° 18:15:32 10° 101° (ESE) 1,817 ? 22.4°
Sets 18:17:50 0° 98° (E) 2,740 ? 22.2°
